Theta_e
288 288 288 290 288 285 285 284 283 284 285 284 281 281 283 282 277 276 283 283 281 283 285 288 289 290 290 292 293 296 298 298 297 297 297 298 298 299 300 300 301 301 301 301 302 302 303 304 304 304 305 305 306 307 307 308 308 309 310 310 310 310 310 310 311 312 314 315 317 318 319 321 328 332 332 332 332 332 332 332 333 333 334 334 334 333 334
287 288 290 292 289 286 284 285 285 285 285 284 283 283 284 284 282 283 283 282 283 284 286 287 289 291 291 292 294 295 296 297 297 297 296 297 298 299 299 300 300 301 301 301 302 303 303 304 304 304 305 305 306 306 307 307 308 309 310 309 309 309 309 309 310 311 312 313 314 315 315 316 317 321 328 331 331 330 331 331 331 332 332 333 333 333 333
284 287 289 291 292 289 283 286 286 285 284 285 285 284 285 285 284 283 283 282 281 286 288 289 291 292 293 293 293 293 295 297 297 296 296 296 297 298 299 300 300 300 301 301 302 303 304 303 303 304 305 305 306 306 306 307 308 309 310 309 309 309 309 310 310 310 310 311 312 312 312 314 314 315 317 323 329 330 331 331 331 331 331 331 331 332 333
282 287 288 289 291 291 288 285 285 285 283 282 285 282 285 280 281 282 282 280 281 284 290 292 293 292 292 292 292 294 296 297 298 296 295 296 296 297 299 300 300 300 301 301 302 303 303 303 303 303 304 306 306 306 306 307 308 309 308 308 308 308 309 310 310 310 310 310 310 310 311 311 311 312 313 315 319 324 329 330 331 332 331 331 331 332 332
280 286 289 289 289 287 280 278 282 285 286 286 288 289 290 288 285 281 280 281 285 288 293 291 292 292 292 292 294 295 297 297 297 297 297 297 297 296 297 298 299 299 300 301 302 303 303 302 303 304 305 306 307 307 307 307 308 307 307 307 307 308 309 309 310 310 310 310 310 310 310 310 311 311 311 311 312 314 318 324 328 331 332 332 332 332 332
278 285 287 289 284 276 276 283 288 289 285 287 284 284 287 289 286 283 286 286 289 292 292 290 291 292 293 294 297 299 298 297 297 298 298 299 298 298 297 298 298 299 300 301 302 302 303 304 304 304 306 307 307 308 308 307 306 306 306 306 307 307 308 309 310 310 310 310 309 309 310 310 310 310 310 310 310 311 312 317 321 324 327 330 332 332 332
280 282 283 280 277 276 284 289 292 292 291 290 288 288 289 290 290 290 288 290 291 292 292 293 293 293 295 297 298 299 300 299 298 297 298 298 299 299 299 299 300 299 300 301 302 303 304 305 305 305 304 306 307 307 308 307 306 305 305 306 306 307 307 308 309 309 309 309 309 309 309 309 309 309 309 309 310 310 311 311 312 317 322 325 327 329 330
279 279 279 274 275 283 289 290 292 293 292 291 289 284 289 291 290 288 286 289 291 292 292 293 293 294 295 297 299 299 300 301 299 298 297 298 299 299 300 299 299 300 301 301 302 303 306 305 305 306 305 306 306 306 308 307 307 306 305 305 305 306 306 307 307 308 308 307 308 308 308 308 308 308 308 309 309 309 310 310 311 315 320 324 325 326 328
278 276 276 276 284 282 285 285 287 288 283 284 282 279 283 291 290 289 288 289 291 292 292 293 291 291 292 293 296 299 299 300 300 299 298 299 299 300 300 301 301 302 302 302 303 305 304 304 305 305 306 306 306 306 306 306 306 305 304 304 304 305 306 306 307 307 307 307 307 308 308 308 307 307 307 308 308 309 309 309 309 310 313 318 323 326 326
280 277 276 275 274 272 276 283 288 291 289 289 287 284 280 288 290 291 290 288 289 290 290 290 290 290 288 286 288 293 296 298 298 298 299 299 299 300 300 300 300 301 302 302 303 303 302 303 303 305 305 305 305 305 305 305 304 304 303 303 304 305 305 306 306 307 307 307 307 307 307 307 307 307 307 308 308 309 308 308 309 309 311 313 318 323 325
280 280 276 273 271 271 277 285 289 291 293 292 287 283 277 283 288 290 291 289 289 289 289 289 289 287 283 283 288 294 295 297 298 297 298 298 299 300 299 299 300 300 301 301 303 303 302 302 303 303 304 304 303 303 303 303 303 302 302 303 304 304 305 306 306 307 307 307 307 307 307 307 307 307 307 307 308 309 309 309 309 310 311 310 312 316 322
280 280 277 274 274 275 283 286 289 291 292 290 283 273 272 284 290 290 291 290 289 289 289 288 286 284 282 285 289 294 296 297 298 297 297 297 298 297 297 298 300 301 302 300 300 300 300 301 302 302 303 302 302 302 302 302 301 301 302 303 304 304 305 306 306 307 307 307 307 307 307 307 307 307 308 308 308 308 309 309 309 310 310 310 310 311 314
280 278 275 275 277 284 289 288 290 291 291 287 275 270 275 286 289 291 291 291 290 289 289 288 287 288 290 291 294 295 295 295 296 296 296 297 297 297 296 298 300 299 299 299 299 299 300 301 301 301 301 300 300 301 301 300 300 301 302 303 304 304 305 306 306 307 307 307 306 307 307 307 308 308 309 308 309 309 309 309 309 309 309 309 310 310 311
278 275 276 276 277 284 291 291 293 292 289 277 272 280 287 289 290 291 292 291 290 289 290 288 289 289 291 294 293 293 293 294 294 294 294 294 294 295 296 299 299 298 297 297 298 299 300 300 301 301 300 299 300 300 299 299 300 302 303 303 304 305 305 306 306 306 306 307 307 307 308 309 308 308 309 310 310 310 309 309 308 308 308 308 309 309 310
277 274 274 276 275 284 293 292 290 290 280 278 282 288 292 292 291 292 291 291 291 290 291 291 292 290 291 291 293 293 293 292 292 293 293 294 294 294 294 297 297 298 296 297 298 298 299 299 300 300 299 298 299 300 298 299 301 302 302 303 304 305 305 305 306 306 306 306 306 308 308 308 308 307 308 309 309 310 309 308 308 307 307 307 307 307 308
279 277 276 277 280 286 294 291 283 286 286 289 290 290 290 292 291 291 292 291 292 292 292 292 291 291 291 291 291 291 292 291 292 293 293 293 293 294 295 296 297 297 296 296 297 298 298 299 299 298 298 298 299 299 298 300 301 301 302 303 304 304 304 305 305 306 306 306 305 305 305 306 306 306 307 308 309 309 309 308 307 306 306 306 306 306 306
282 280 278 282 286 291 293 292 289 292 293 293 293 292 291 291 293 291 291 292 292 292 293 293 291 291 290 292 292 292 293 293 293 293 294 294 293 293 293 296 296 296 296 296 296 297 298 298 298 298 297 297 298 297 299 300 301 301 301 302 303 303 304 304 304 305 304 303 302 302 303 303 303 303 304 305 306 308 308 307 306 305 305 305 305 305 306
288 289 290 292 292 292 293 293 294 294 294 294 294 293 293 292 293 293 293 292 292 293 293 294 291 292 292 292 292 292 292 293 293 294 293 293 292 293 293 294 296 296 296 295 295 296 297 298 298 298 297 296 296 297 299 300 301 300 300 301 302 302 303 304 304 303 301 300 300 300 300 301 301 302 303 304 305 306 307 306 306 305 305 305 305 305 305
285 282 290 291 292 291 292 293 294 295 295 296 295 294 293 293 294 294 293 294 293 294 293 294 293 292 292 292 292 292 292 292 293 293 293 292 292 292 292 294 295 297 295 295 296 296 296 297 297 297 296 297 297 298 298 300 300 300 300 300 301 302 302 303 302 300 298 298 297 298 299 299 300 301 302 303 304 304 306 306 306 306 305 305 305 305 305
285 283 287 292 293 293 294 294 294 293 294 295 295 296 295 295 296 295 295 294 294 294 294 293 292 293 292 292 292 293 292 293 293 293 293 292 292 293 293 294 295 294 293 293 294 294 296 296 296 296 297 297 297 297 298 300 299 299 299 300 300 301 302 302 300 299 298 296 296 297 298 299 300 301 302 303 303 304 305 306 306 306 305 305 304 305 305
286 289 292 292 293 294 294 294 294 296 296 296 295 295 295 295 296 295 295 294 295 294 294 293 293 293 293 292 292 293 292 291 292 292 293 292 292 293 294 295 295 294 293 294 294 294 295 295 295 295 296 296 297 297 298 299 298 298 299 299 300 301 301 301 299 298 297 297 297 297 298 299 300 301 301 302 303 304 306 308 308 307 306 306 306 306 306
281 285 289 290 286 285 291 295 296 295 296 296 296 294 294 295 295 295 295 295 295 295 294 294 293 293 293 293 292 294 293 292 292 291 291 292 292 293 295 296 294 293 294 294 294 294 295 294 294 295 295 296 297 297 297 298 298 298 299 299 299 299 300 300 298 297 297 296 297 297 298 298 298 299 297 297 299 301 303 302 301 300 300 305 307 307 307
282 287 291 292 290 291 292 294 296 297 296 296 295 295 295 295 295 295 295 295 295 296 296 294 294 292 293 293 292 293 293 293 292 293 293 292 293 294 294 294 293 293 293 295 294 293 294 294 294 294 295 295 296 297 297 297 297 297 298 299 298 298 299 298 296 296 296 296 296 297 297 297 297 296 297 299 297 296 296 298 299 299 297 297 297 298 303
290 292 295 295 292 293 295 296 296 297 297 297 296 296 296 296 296 295 295 295 295 294 295 296 295 294 293 293 294 294 293 292 292 292 292 293 293 293 295 296 294 293 293 293 293 293 293 293 293 293 294 295 296 296 297 297 297 297 297 298 297 297 298 297 296 295 296 296 296 296 296 296 296 295 296 297 299 299 299 299 296 296 296 296 296 296 296
293 296 297 296 295 295 297 297 297 297 298 298 297 296 296 296 296 296 296 295 295 295 295 296 296 295 295 294 294 294 294 294 294 293 294 294 294 294 294 294 293 293 293 293 292 292 292 293 293 293 294 295 295 296 296 297 296 296 296 297 297 297 297 296 296 295 295 295 295 295 294 294 294 295 295 296 296 298 301 298 298 296 295 295 295 295 295
296 297 298 297 297 298 297 296 297 297 297 298 298 298 300 301 298 297 296 296 296 295 296 296 296 295 295 295 294 294 294 293 293 293 293 293 293 293 293 293 293 294 292 292 290 291 291 292 291 292 293 294 294 295 296 296 296 296 296 297 297 297 295 295 295 295 295 295 295 294 294 294 294 294 295 295 295 296 298 297 298 297 297 296 294 293 294
298 298 297 296 296 295 295 296 294 298 299 299 299 298 299 299 303 300 298 297 297 297 297 297 297 296 295 295 295 294 294 294 293 292 292 292 292 292 292 292 292 292 293 290 289 290 291 291 290 290 291 292 293 294 295 296 295 295 296 297 297 294 291 293 295 295 295 295 294 294 293 293 293 293 293 293 293 294 295 295 294 295 296 298 297 297 298
298 298 299 294 292 294 295 297 298 299 299 299 298 298 298 298 298 296 296 296 296 296 296 296 296 295 296 296 295 294 294 293 293 292 292 292 292 292 291 292 291 291 291 289 287 289 291 290 288 287 288 291 292 293 294 295 294 294 295 296 296 295 295 294 294 295 295 294 294 293 293 292 293 293 292 292 292 293 293 293 293 294 295 297 297 295 295
298 299 300 299 297 297 297 297 297 297 297 298 299 298 297 297 297 297 297 297 297 296 296 296 296 297 297 296 294 295 294 293 292 292 292 292 292 292 293 291 290 289 288 287 286 288 289 287 286 286 287 290 291 292 293 294 293 293 294 295 295 294 294 294 294 294 294 294 294 293 290 291 292 292 292 292 291 292 292 293 292 293 294 295 294 294 294
298 299 299 299 298 297 297 296 297 296 296 297 297 296 297 298 296 296 296 297 296 297 298 298 297 296 295 295 295 295 294 293 294 293 292 292 291 292 291 289 288 287 286 285 285 287 288 286 285 286 287 289 290 291 293 293 293 292 293 294 294 293 293 293 294 294 294 293 293 290 292 291 292 292 291 291 291 291 291 291 291 291 292 293 292 292 291
299 299 299 299 298 298 297 296 296 296 296 295 296 296 295 295 295 295 295 296 296 297 298 298 297 296 295 295 296 295 295 294 293 292 292 291 291 291 290 288 286 286 286 286 286 287 287 286 285 287 288 288 289 291 292 292 292 291 292 293 293 290 289 288 289 293 293 292 292 292 292 291 291 290 289 289 290 290 290 290 290 291 291 292 291 290 291
297 298 300 298 298 296 296 295 295 296 296 295 295 296 295 295 295 294 294 294 295 296 296 296 295 296 296 296 295 295 294 294 293 291 292 291 291 290 288 288 286 285 285 286 287 287 287 285 285 287 287 288 289 291 291 291 291 290 290 290 292 292 290 288 291 291 292 291 291 292 291 291 290 290 290 289 289 289 289 289 289 289 290 290 290 290 290
293 294 295 296 297 296 294 294 296 295 295 295 295 296 296 295 295 295 294 294 295 294 296 295 295 296 296 295 295 295 294 293 292 291 290 289 290 290 289 287 286 286 286 287 286 286 286 287 287 287 287 287 288 290 291 290 290 289 289 291 292 291 288 289 289 291 291 291 291 291 292 291 291 290 289 289 289 289 289 289 288 289 289 289 290 290 289
293 292 293 293 297 297 295 295 295 295 296 296 296 296 295 295 295 295 294 294 295 295 295 295 296 296 296 295 295 294 293 292 290 290 289 289 289 290 289 287 286 286 285 286 286 285 286 286 287 287 287 287 288 289 289 289 289 289 288 289 291 291 290 289 290 289 289 289 290 291 291 291 291 290 290 289 289 289 288 288 288 288 288 289 289 290 289
296 295 296 296 296 297 298 298 297 296 296 295 295 295 294 294 295 296 295 296 295 297 297 297 296 296 296 295 294 294 293 293 291 289 289 289 289 289 289 288 287 286 286 285 285 285 286 286 287 286 287 287 288 288 288 288 288 288 288 288 289 290 289 289 289 288 287 288 289 290 290 290 290 289 289 289 289 289 288 288 288 287 288 287 288 289 288
297 297 297 296 296 298 298 297 297 296 296 294 294 294 296 296 296 295 294 294 296 296 296 297 296 296 295 294 294 294 294 292 291 290 289 290 290 289 288 287 286 285 285 284 284 285 286 286 286 285 286 287 287 287 287 287 287 287 287 288 288 289 288 288 288 288 288 288 287 288 288 288 289 289 289 290 289 289 288 288 288 288 287 287 287 287 288
297 298 298 298 297 297 297 297 296 296 296 296 296 296 296 295 296 296 295 295 296 297 297 296 295 295 295 295 296 295 294 292 291 291 290 290 289 289 288 287 285 284 283 284 284 284 286 286 286 285 286 288 286 286 286 286 287 286 286 287 288 288 288 289 287 287 287 287 286 287 287 287 288 289 289 289 289 288 288 288 288 287 287 287 287 287 287
298 299 298 298 297 296 296 297 298 297 296 295 295 295 296 296 295 295 296 297 297 297 296 297 297 296 295 294 294 295 295 293 291 290 289 290 289 288 288 287 285 284 284 285 283 285 286 286 285 285 286 286 286 286 287 286 285 285 285 286 286 287 287 288 287 287 286 286 285 286 286 286 286 286 287 288 288 288 288 288 288 287 287 287 287 287 286
299 299 298 298 298 298 297 298 297 296 296 295 296 295 294 295 295 295 296 296 297 296 296 296 295 295 295 295 296 295 294 292 291 290 289 290 289 289 288 288 288 288 287 285 285 287 288 286 286 286 286 286 286 286 286 286 285 285 285 287 287 287 287 288 287 286 286 287 285 285 285 285 285 285 285 286 286 287 287 287 287 287 287 287 287 286 286
297 298 298 298 297 297 297 297 297 297 297 297 296 296 296 295 295 296 296 296 295 296 297 296 296 295 295 295 295 295 294 292 291 290 290 289 288 288 289 288 289 288 287 285 287 287 286 285 285 287 286 286 285 285 285 285 285 285 286 286 286 287 287 286 286 287 287 286 286 285 284 284 284 284 284 284 284 285 285 286 286 286 286 286 286 286 286
298 297 297 297 296 296 296 296 296 297 297 297 296 295 296 297 297 296 296 296 297 296 298 297 297 296 296 296 296 296 292 292 291 291 290 288 288 288 289 288 289 289 288 287 287 287 286 286 286 285 285 285 285 284 284 285 284 285 286 286 286 287 288 287 286 286 287 287 286 285 284 283 283 284 283 283 283 283 284 284 284 285 286 286 285 286 286
297 297 297 296 296 297 297 297 297 297 297 297 297 297 297 296 297 297 296 296 297 297 297 297 294 298 298 297 296 293 291 290 291 291 290 290 290 288 287 289 290 290 288 287 286 286 287 287 286 284 284 284 283 284 284 283 284 285 286 285 286 286 287 287 285 286 286 286 285 284 284 283 283 282 283 282 283 282 282 282 282 282 283 284 284 284 284
296 297 297 297 297 296 297 296 296 297 296 297 297 298 298 297 296 295 295 295 297 297 298 298 296 294 295 295 294 291 291 290 290 290 290 290 291 291 291 291 290 291 287 288 288 287 288 287 286 284 284 283 283 283 283 283 284 285 285 285 285 285 285 286 285 285 285 284 285 284 283 283 283 282 282 282 281 282 282 281 281 281 281 281 281 281 282
296 296 296 296 296 296 296 296 296 296 296 297 298 298 298 298 298 297 297 297 297 297 297 297 297 296 296 296 294 292 291 290 290 290 288 289 290 291 292 292 291 289 286 288 287 287 288 287 286 285 284 284 284 283 283 284 285 285 285 284 286 285 286 285 284 284 284 284 284 284 283 283 282 283 282 282 281 281 281 281 281 281 280 280 280 280 280
296 296 296 296 296 295 296 295 296 296 297 297 297 297 297 297 298 298 297 296 296 296 296 297 297 297 296 294 293 294 293 293 292 291 289 288 288 291 291 289 292 288 287 287 288 288 288 288 287 285 284 284 284 283 283 283 284 283 284 285 285 285 285 284 285 284 284 284 284 283 285 284 283 282 281 282 282 281 281 281 281 280 280 280 279 280 280
297 297 295 293 296 296 296 296 296 295 297 297 297 296 296 296 297 297 297 297 297 298 298 298 298 298 298 297 295 294 294 293 293 293 294 294 293 293 292 289 289 288 287 286 288 288 289 287 286 285 285 284 284 284 283 284 284 283 284 283 284 284 283 283 283 282 283 282 283 283 284 283 283 282 281 280 281 281 282 282 281 280 280 280 280 279 279
296 296 296 295 296 296 296 296 297 296 296 296 296 296 296 296 296 297 297 298 298 299 299 299 299 300 300 299 298 295 294 293 294 293 293 293 293 292 290 288 288 287 287 288 289 289 289 288 286 285 285 285 284 284 284 283 284 284 284 284 283 283 283 283 282 282 281 281 282 282 284 283 283 282 282 281 280 280 280 280 280 280 280 280 280 280 280
296 296 296 296 297 297 296 296 296 297 297 296 296 298 297 298 298 299 299 299 299 298 298 298 299 299 300 300 299 299 299 297 295 296 296 294 294 293 292 289 290 288 287 287 288 288 288 287 286 286 285 285 285 285 284 284 284 285 285 285 285 283 282 281 281 281 281 281 281 281 281 282 283 282 282 281 281 280 279 280 280 280 279 279 279 279 279
296 296 296 296 296 296 295 295 295 295 295 295 295 295 296 297 297 297 297 297 298 298 298 298 298 299 299 298 299 300 299 299 298 297 298 296 295 295 295 291 289 288 288 289 290 290 288 287 287 286 286 285 286 285 285 284 285 285 285 285 285 284 283 282 282 281 281 282 281 281 281 283 283 283 282 281 281 280 280 280 280 280 279 279 279 279 278
297 296 295 295 295 295 295 294 295 295 296 294 295 296 296 297 296 297 296 296 297 295 297 297 298 298 298 298 298 298 299 298 297 298 297 297 297 296 295 294 292 289 288 290 291 291 288 287 286 286 286 287 287 286 285 285 285 286 287 286 285 284 284 283 283 283 283 281 281 281 281 281 282 283 282 282 281 281 280 281 280 281 282 281 279 278 278
295 295 295 294 295 296 296 297 297 296 296 297 296 296 295 296 296 295 296 296 296 295 295 296 295 295 295 295 296 297 298 298 297 295 296 296 296 293 292 293 292 290 290 289 290 290 290 288 288 288 287 287 287 287 287 286 286 287 287 287 287 285 284 284 283 282 282 282 281 281 281 281 281 282 282 282 281 281 280 281 280 280 280 278 278 277 277
295 295 296 296 296 297 298 298 299 299 298 296 295 295 295 295 295 294 294 292 294 295 295 296 296 297 296 295 294 295 295 295 293 294 293 294 297 296 293 290 293 291 291 290 290 291 290 289 288 286 287 287 287 288 286 286 287 287 288 287 287 287 286 284 284 283 282 283 282 281 281 281 280 282 282 281 281 281 281 280 279 279 279 278 278 278 277
Wind_Speed
1 3 3 4 1 1 0 0 2 3 4 6 5 1 0 3 2 5 2 3 3 3 3 3 3 3 3 3 3 3 3 3 4 5 6 6 6 7 8 8 8 8 9 8 9 9 8 7 8 8 8 7 7 7 7 8 8 8 8 8 9 9 9 9 8 7 6 5 5 4 4 5 6 7 7 7 7 7 7 8 9 10 10 10 10 10 10
1 1 0 3 4 2 2 2 2 3 4 3 4 3 2 5 4 4 6 4 3 3 3 4 2 2 2 1 1 3 5 3 3 4 4 4 5 6 7 8 8 8 8 8 8 8 9 10 10 8 7 7 8 8 8 8 8 8 8 8 8 8 8 9 8 8 7 6 5 5 5 5 5 6 6 6 6 7 7 9 9 9 9 10 10 11 11
1 2 4 2 1 1 1 3 2 2 3 3 2 2 1 5 5 3 4 3 1 4 4 2 1 0 0 2 5 4 2 3 3 2 3 3 4 5 5 6 7 7 7 7 7 7 9 10 11 10 8 7 7 7 7 7 8 8 7 8 8 8 8 8 8 8 7 6 6 5 5 5 5 6 7 5 4 5 7 8 9 10 10 11 11 11 12
1 3 4 4 3 1 1 1 3 0 2 2 1 2 2 3 3 2 3 1 2 4 2 1 0 2 2 2 2 3 2 1 1 1 2 3 3 3 5 6 6 7 7 6 6 8 10 10 10 9 9 8 7 6 6 7 7 8 7 7 8 8 8 9 8 8 7 7 6 6 6 6 6 6 7 6 6 4 5 6 8 9 10 11 11 11 11
2 3 6 3 1 2 3 3 6 5 1 2 1 0 1 1 4 4 2 1 2 3 2 3 0 1 1 2 1 2 1 1 1 1 2 3 3 3 4 4 5 6 7 6 5 7 8 9 10 10 9 8 8 8 7 7 7 7 8 7 8 9 9 9 9 8 7 7 7 7 7 7 7 7 8 8 7 6 6 6 7 8 10 11 11 11 11
1 0 4 2 1 2 1 4 8 7 5 6 4 2 4 2 3 1 2 1 1 3 3 2 1 1 1 1 3 3 3 2 2 2 3 3 3 3 4 4 4 4 5 4 5 6 6 7 8 8 7 8 8 8 7 6 6 6 8 8 8 8 9 9 9 8 7 6 7 7 7 7 7 7 7 8 8 8 8 7 7 8 9 11 11 12 11
0 2 3 2 2 4 3 1 5 5 7 7 6 4 4 2 3 1 3 4 5 3 3 3 3 3 2 3 6 3 3 3 2 2 2 2 2 4 4 4 3 3 4 4 3 6 7 7 7 6 7 7 8 8 7 7 5 6 7 8 8 8 9 9 8 8 9 9 9 8 7 7 8 8 8 8 9 8 8 9 9 9 10 11 11 11 12
2 2 1 0 2 3 1 0 2 2 3 2 2 2 2 2 3 5 4 4 4 4 3 3 2 2 0 4 4 4 4 4 2 1 2 3 3 4 4 4 3 3 4 4 4 5 5 6 6 6 7 7 7 8 8 7 6 5 6 7 8 8 9 9 9 9 9 10 9 9 8 8 7 8 8 8 9 9 9 9 9 9 10 10 11 11 12
2 2 4 3 1 2 2 1 1 5 5 4 5 2 2 2 3 5 6 4 3 2 1 1 3 2 5 2 4 3 3 4 3 2 3 3 4 4 5 3 3 3 4 5 6 4 5 6 7 7 7 7 7 7 7 6 6 6 6 7 8 9 9 9 10 10 10 10 10 10 9 9 9 8 8 9 9 8 10 11 11 10 10 11 11 11 12
5 4 1 1 1 2 6 7 5 1 3 7 5 6 2 3 2 4 8 6 4 2 0 1 1 3 6 6 4 5 4 4 3 4 4 4 4 5 5 3 3 4 4 5 5 4 4 6 6 6 6 7 7 7 7 7 7 6 5 7 7 8 9 10 10 9 9 9 10 10 10 10 11 10 9 8 9 8 9 11 12 12 10 11 11 11 13
2 1 3 3 3 5 5 6 5 3 2 8 4 3 2 3 2 4 7 6 4 4 3 1 3 6 4 2 5 8 5 5 4 3 5 3 3 5 3 2 3 4 5 5 6 5 5 7 8 6 5 6 6 7 8 8 7 8 8 8 8 9 9 9 10 9 9 9 9 10 11 11 11 11 11 10 9 9 10 10 12 12 12 12 12 12 11
2 2 2 2 2 1 2 4 3 2 4 6 4 1 3 4 1 3 6 6 5 4 3 4 4 4 2 2 5 5 4 4 6 2 4 4 4 4 3 2 2 4 4 5 7 7 7 7 8 7 6 5 5 6 7 7 8 10 10 10 9 8 9 9 9 9 9 10 10 10 11 12 11 11 10 10 10 10 10 10 11 12 12 13 13 13 12
2 5 1 1 2 3 2 3 3 3 1 3 2 3 3 3 2 3 6 6 5 4 4 2 2 2 3 3 5 4 3 3 5 3 1 2 3 3 3 1 3 3 5 5 6 7 6 6 7 6 5 5 5 5 6 7 9 10 11 10 9 9 9 10 10 10 9 9 11 12 11 11 11 11 10 11 11 11 12 11 12 12 14 14 14 14 13
1 2 4 1 2 4 1 1 5 4 1 1 3 4 3 3 2 3 6 7 4 4 3 3 2 2 3 4 3 1 1 1 3 3 2 3 4 4 3 4 1 3 4 5 6 7 7 7 7 6 6 6 6 6 6 7 8 9 10 10 10 10 11 11 11 11 11 10 9 10 11 11 11 12 11 12 12 13 12 12 14 15 14 13 13 13 12
2 3 2 1 0 2 4 5 1 2 2 5 5 2 1 2 4 6 3 5 4 4 1 3 2 3 3 1 1 1 1 1 3 3 3 3 3 4 3 3 2 1 4 5 7 7 7 6 6 6 6 7 8 8 9 9 9 10 10 10 10 11 11 11 10 11 10 11 10 8 9 11 12 14 13 14 14 14 14 14 15 15 14 13 12 13 13
1 0 1 1 4 6 6 8 5 5 6 5 5 5 3 1 4 6 5 3 4 5 4 1 1 1 2 3 0 1 2 3 4 4 2 2 3 4 4 4 3 1 4 4 5 6 6 6 6 5 6 7 8 10 11 10 9 10 10 10 11 12 11 11 11 11 11 11 11 10 12 12 12 13 13 13 13 12 13 13 12 13 11 11 12 13 14
2 2 4 5 4 7 6 7 5 5 6 6 8 6 5 4 2 3 6 4 4 4 3 0 1 1 2 2 2 0 1 1 1 2 1 1 3 4 4 4 4 3 4 5 5 6 7 7 6 5 4 5 7 10 10 9 11 11 11 11 10 11 12 12 11 12 13 12 12 11 10 10 11 12 12 12 13 12 12 12 12 12 11 11 12 12 13
1 2 4 2 1 2 2 3 3 7 5 4 5 6 4 3 4 6 5 5 4 2 2 0 0 2 1 1 1 1 2 2 2 1 2 4 4 4 5 6 6 4 5 5 5 5 7 7 6 5 6 4 6 9 9 8 10 11 11 11 11 11 11 9 10 12 14 13 11 10 11 9 10 10 12 13 12 12 11 11 11 11 12 11 12 12 13
2 1 0 4 7 4 4 5 3 2 4 7 6 5 4 4 4 4 4 6 4 2 2 2 1 2 0 1 0 0 1 2 2 1 1 3 3 4 4 5 4 4 4 5 6 5 5 6 6 6 5 6 6 7 8 8 10 11 11 11 12 12 11 10 10 11 13 12 14 13 10 10 10 10 11 11 12 13 12 12 12 12 12 12 12 12 13
2 2 6 8 4 2 4 8 7 6 5 5 5 5 5 5 6 6 6 5 3 4 2 4 3 1 1 1 1 0 1 1 1 1 1 2 4 5 4 5 3 3 4 5 5 5 5 6 6 6 6 7 7 8 8 9 10 10 10 11 12 13 13 10 10 12 13 16 15 12 13 12 12 13 12 12 13 13 13 13 13 12 11 12 12 12 12
3 3 1 2 3 2 4 5 5 7 9 7 5 4 5 4 5 4 4 4 5 5 4 4 4 2 1 2 2 0 2 2 2 1 2 3 4 4 4 4 4 3 3 4 5 3 5 5 5 5 6 7 7 8 8 9 9 10 10 11 12 12 11 9 11 11 12 12 13 13 13 14 13 12 13 15 15 16 16 14 13 12 12 12 12 11 12
2 3 2 3 3 2 4 8 9 7 6 8 7 5 5 5 4 4 5 4 2 3 4 5 4 4 3 3 3 0 1 2 3 3 4 4 4 5 4 3 3 3 3 3 4 3 4 4 4 4 6 6 6 6 6 7 8 9 10 10 11 11 10 9 11 11 10 11 12 11 11 11 13 16 17 18 17 16 16 21 21 21 18 14 12 11 12
3 5 6 5 4 4 5 8 9 7 6 7 8 7 7 6 6 6 6 5 3 3 3 4 4 4 4 3 3 1 0 2 3 4 4 4 5 4 4 3 4 4 4 3 4 3 4 4 4 4 5 7 7 8 6 7 7 8 8 9 9 9 9 9 11 11 10 10 11 11 11 11 12 13 16 17 17 19 21 22 23 22 20 22 23 21 16
2 6 6 7 5 5 4 4 5 7 8 10 11 9 7 8 8 6 7 8 6 4 4 4 5 6 5 4 4 1 2 3 3 4 4 5 5 5 3 0 1 3 4 4 4 4 4 4 4 4 5 6 6 7 6 7 7 7 7 7 9 9 9 10 11 10 9 10 11 11 11 11 11 11 11 14 18 20 22 18 16 19 20 21 22 22 23
4 5 7 7 7 7 6 7 8 8 9 10 10 9 9 7 6 7 8 7 6 7 6 5 5 6 7 5 5 3 3 3 4 4 5 5 5 4 1 1 1 1 2 3 3 3 3 4 4 4 5 6 6 7 7 6 7 7 6 6 9 10 10 11 11 10 9 9 10 10 11 12 12 11 11 13 15 17 19 20 19 15 17 18 19 21 22
2 5 6 5 4 7 5 3 3 6 8 7 7 6 8 9 10 7 8 9 7 6 7 7 6 5 6 6 5 4 4 4 4 3 3 4 4 3 1 0 1 2 2 2 4 4 3 4 5 5 5 7 6 7 7 6 6 6 6 5 7 7 9 11 12 10 9 9 10 10 11 11 10 9 11 11 12 13 14 15 16 16 14 15 17 13 12
5 5 5 2 2 4 4 10 7 9 12 12 11 10 10 9 11 10 8 7 8 8 9 8 7 6 5 5 5 5 5 3 2 3 3 4 4 3 3 3 2 1 0 2 4 4 3 3 4 5 6 7 6 7 7 7 6 7 7 7 7 8 12 12 10 10 10 10 10 10 11 11 11 11 11 11 11 11 12 13 12 13 13 14 14 17 14
5 6 9 7 7 8 7 9 7 8 9 10 8 8 7 7 5 5 5 6 5 5 5 5 5 5 6 5 5 4 2 2 4 4 4 4 4 2 3 3 1 1 2 3 4 4 3 3 4 5 7 7 7 7 6 7 7 7 8 7 8 7 9 11 10 9 9 9 9 10 10 11 10 9 9 9 10 10 10 9 10 11 12 11 11 13 18
7 9 10 9 9 9 4 4 2 3 5 6 7 5 4 5 7 8 8 8 8 5 5 5 5 7 7 5 4 4 4 4 4 5 5 4 3 2 3 2 2 2 3 3 3 3 3 3 4 5 7 7 7 7 5 6 7 7 7 7 7 7 9 10 9 10 10 9 9 10 9 10 10 10 10 9 9 9 9 10 11 11 10 12 14 17 19
7 8 9 6 1 4 6 6 7 6 6 5 5 5 7 8 6 7 8 8 6 7 8 6 5 5 4 5 5 5 5 5 5 4 2 3 2 4 4 3 2 3 4 4 3 2 2 2 4 5 6 7 6 6 5 5 8 7 6 5 5 6 7 9 9 9 9 10 10 11 9 9 9 10 10 10 10 10 10 11 12 11 13 13 13 13 16
7 5 10 5 5 6 9 9 7 6 5 5 6 6 4 4 6 5 6 7 4 6 4 5 7 7 5 6 6 6 5 4 4 2 2 3 4 4 4 3 2 1 1 0 1 1 1 2 3 5 6 6 5 5 4 5 7 7 6 5 5 7 10 11 9 9 8 9 10 10 10 10 10 11 11 11 11 12 12 11 12 12 11 12 13 15 15
1 4 1 4 8 10 7 5 5 5 6 4 3 2 4 4 3 3 4 4 6 7 6 6 6 8 8 7 6 5 4 4 1 2 4 4 3 3 4 4 5 5 2 1 0 0 1 2 3 5 5 4 4 4 3 4 6 7 7 6 6 5 7 10 8 9 9 9 9 10 10 10 11 10 10 11 12 12 12 12 13 12 12 13 14 13 14
4 4 4 2 0 1 3 4 6 5 4 4 5 5 4 3 4 3 3 3 3 4 6 7 6 6 7 6 5 5 4 1 1 4 4 3 2 1 3 4 4 4 2 1 1 1 1 2 4 5 5 4 3 4 3 3 4 6 6 6 5 5 6 6 7 7 8 8 9 9 9 10 10 10 10 10 10 10 10 11 11 11 12 12 11 12 14
5 5 4 7 10 10 9 7 4 5 4 5 5 5 4 4 4 4 4 4 5 5 6 6 7 7 5 6 5 5 3 1 2 4 5 4 2 2 3 6 4 4 3 1 1 2 3 3 3 4 5 4 2 3 3 3 4 5 5 5 6 5 6 6 6 6 6 8 8 10 9 9 10 10 10 10 9 9 10 10 10 11 12 11 11 10 15
6 4 5 5 6 7 9 9 8 7 7 5 4 4 4 4 5 5 5 6 6 8 7 6 6 5 5 5 5 5 4 5 4 5 5 5 4 3 4 5 3 1 0 0 1 3 3 3 4 4 5 4 2 2 3 3 3 5 5 5 5 5 5 5 6 6 5 6 6 7 9 9 9 9 10 10 10 10 9 10 10 10 9 11 11 11 13
5 4 3 3 4 6 7 8 8 8 7 6 5 5 5 6 6 5 5 5 6 5 5 6 6 5 5 5 5 5 6 4 4 6 6 6 6 3 5 6 5 3 1 2 3 4 4 3 6 7 5 4 4 3 3 3 3 4 5 5 5 5 5 3 5 5 5 5 6 6 6 8 8 8 9 9 9 10 10 10 10 10 10 10 10 11 10
4 6 6 6 6 7 7 6 6 5 5 5 5 6 6 5 6 5 5 4 4 5 5 5 5 6 7 7 7 5 4 4 6 7 7 6 4 4 5 5 4 4 3 2 3 3 3 3 6 8 5 3 3 4 4 5 4 5 4 4 4 4 4 4 5 5 5 5 5 6 6 6 6 7 8 8 9 9 9 9 9 9 9 9 10 10 10
4 7 7 6 5 5 5 5 6 6 5 4 3 4 6 5 5 5 6 5 5 6 5 6 8 8 6 4 4 4 4 4 5 6 5 5 5 5 4 5 6 4 5 6 3 3 3 4 7 6 3 4 3 4 5 6 5 5 4 4 4 4 3 2 4 5 6 5 4 5 5 6 6 6 7 7 8 8 9 8 8 8 8 9 9 9 9
3 2 4 5 5 6 5 5 5 5 6 6 5 5 5 7 6 5 5 6 6 4 5 5 4 4 4 5 5 4 4 4 6 6 6 6 5 5 7 7 8 9 8 4 3 4 4 4 4 5 3 3 3 4 4 6 6 4 4 4 4 4 3 2 2 3 5 4 4 5 5 5 6 6 6 6 6 7 8 9 9 8 8 8 8 8 8
6 6 6 6 6 6 6 6 6 5 5 5 4 4 4 4 4 5 5 5 5 5 6 6 6 6 6 6 5 5 5 5 6 7 7 6 5 4 2 4 7 7 6 6 4 4 5 6 5 6 3 2 2 4 3 4 5 4 3 4 3 3 1 2 1 1 3 3 5 5 4 5 5 5 5 5 6 6 6 7 8 8 8 8 8 8 8
7 6 6 6 6 5 5 5 5 5 5 4 4 5 5 7 6 6 7 7 6 6 7 8 8 7 7 7 7 7 6 6 6 7 6 4 4 6 7 8 7 7 6 7 5 4 5 5 6 5 2 2 2 4 3 4 3 3 3 4 4 3 1 1 2 2 1 1 1 2 3 3 4 5 5 5 5 5 5 5 6 6 6 7 7 7 7
6 5 5 5 5 6 6 6 5 4 5 5 6 7 8 7 8 9 8 6 6 7 7 8 10 9 8 7 6 5 5 6 6 6 6 8 8 7 7 8 7 7 10 9 7 6 5 6 7 6 4 3 3 5 6 1 2 3 4 3 3 2 2 2 3 3 3 1 1 2 1 2 2 3 3 4 3 4 5 5 5 5 5 5 5 6 6
5 6 6 6 5 5 5 4 5 6 6 5 5 6 6 6 6 6 5 5 7 8 7 7 8 8 7 5 5 5 6 6 6 6 5 7 8 7 8 8 6 7 11 9 7 6 7 7 8 7 6 4 4 6 6 2 1 2 3 3 2 1 2 1 2 3 3 2 1 1 2 1 1 1 2 3 3 4 4 4 4 4 5 5 5 5 5
5 5 5 5 5 4 2 2 3 2 3 7 7 6 6 5 6 7 7 7 7 7 8 7 7 7 7 6 5 6 7 6 7 7 7 7 7 6 8 9 9 8 12 9 8 8 8 8 8 9 10 9 8 8 6 3 2 1 2 2 1 0 0 1 1 1 2 3 2 3 3 3 1 1 0 1 2 3 3 3 3 3 4 4 5 4 5
5 5 5 4 3 2 2 2 2 3 5 4 4 4 4 5 5 6 6 6 7 8 8 8 8 8 8 7 8 9 8 9 8 8 6 7 7 9 6 8 9 6 9 11 9 9 8 9 11 12 10 10 9 9 6 5 4 3 3 3 1 1 1 1 0 1 1 2 2 2 4 4 4 3 2 1 1 0 0 1 1 2 3 3 4 4 4
4 4 5 6 5 5 5 4 4 3 2 2 3 4 4 4 5 4 5 6 7 8 9 9 9 10 10 9 9 9 7 7 7 8 9 10 10 10 8 8 7 8 12 14 10 10 10 13 14 13 13 11 10 7 6 6 5 5 5 5 3 3 3 3 2 1 1 2 3 2 5 5 4 3 4 3 2 1 0 1 2 1 2 2 2 3 4
4 4 4 4 4 4 4 3 2 2 2 1 0 3 5 4 4 4 5 5 6 7 7 7 9 10 10 10 9 7 7 7 8 8 8 8 9 10 8 9 10 12 11 10 10 10 10 10 12 14 14 13 11 7 7 6 6 6 7 6 6 5 5 4 4 3 2 2 3 2 3 4 4 5 3 3 2 2 2 2 1 1 1 1 2 2 3
5 4 3 4 4 4 1 2 2 1 0 1 2 3 4 4 4 5 5 5 6 6 6 6 7 8 9 9 9 9 8 7 7 8 7 8 9 9 8 7 9 12 14 13 16 15 17 15 15 15 15 14 10 7 7 7 7 6 7 7 7 7 6 6 5 4 3 3 3 3 2 4 5 5 5 4 4 3 3 3 3 2 2 2 2 2 2
3 3 2 1 2 3 3 2 1 0 2 3 2 4 4 3 3 4 5 5 4 5 6 6 7 8 8 8 8 7 8 8 9 10 8 7 7 8 9 10 13 15 12 10 11 10 14 16 16 16 16 13 9 8 7 7 7 7 7 8 7 7 7 7 8 6 5 4 4 3 3 4 6 6 6 5 4 4 3 3 4 4 3 3 2 2 2
2 3 4 4 4 3 3 1 0 2 4 3 3 5 4 2 4 5 5 5 5 5 6 6 6 5 5 6 6 6 7 6 6 7 8 7 5 6 8 9 9 12 13 11 10 11 12 17 16 14 12 9 9 8 7 8 8 8 7 8 8 7 8 8 7 7 6 5 5 4 4 4 5 6 5 5 5 4 4 4 4 4 6 4 3 3 3
3 3 3 3 4 4 4 3 3 4 4 4 4 4 3 2 4 5 5 5 3 4 5 6 6 6 6 6 5 6 6 6 6 6 4 3 3 4 5 4 5 6 6 7 8 9 8 8 8 10 10 9 9 9 8 8 8 8 8 8 8 7 7 8 7 7 7 7 6 6 4 5 4 6 6 6 6 5 4 4 4 5 5 5 5 4 4
4 3 4 4 6 5 5 4 3 4 4 5 4 3 3 2 2 3 4 4 1 2 3 2 5 6 5 4 5 6 7 6 5 4 4 2 1 2 5 6 6 7 7 7 8 8 8 7 6 7 8 8 8 8 8 10 9 8 8 8 7 7 8 8 7 7 7 8 8 7 6 5 6 6 6 6 6 6 6 5 5 5 5 5 5 5 5
Wind_Direction
184 201 241 242 205 169 212 65 16 14 26 53 72 36 287 106 127 175 211 112 122 228 232 239 251 252 269 295 300 318 23 42 31 31 24 8 356 348 350 345 344 342 341 339 336 336 334 333 333 332 330 326 323 325 320 322 326 325 324 325 325 323 319 314 306 301 299 297 290 289 279 273 271 261 250 241 236 229 225 232 235 238 237 235 237 234 226
182 274 123 59 56 10 17 356 353 23 62 103 105 83 30 94 128 144 151 148 168 211 222 228 239 240 221 256 284 37 49 30 27 34 18 5 348 343 337 333 329 329 331 329 327 327 334 337 333 326 323 323 324 324 322 320 322 319 325 322 320 318 314 311 308 304 301 299 297 297 300 293 286 281 273 260 248 244 239 236 239 240 239 236 234 234 232
267 256 278 312 55 61 53 320 342 33 76 69 70 88 43 75 68 78 114 111 245 258 196 202 267 272 227 34 34 57 68 47 27 31 1 335 330 323 322 319 322 323 321 319 319 326 334 338 333 328 319 314 313 313 314 317 319 321 326 325 323 319 316 313 310 305 303 298 298 298 292 292 291 293 289 281 257 242 245 245 243 243 239 239 236 234 232
285 231 231 239 236 106 58 304 301 272 74 81 265 96 200 115 161 126 101 62 262 275 263 257 35 36 40 52 24 72 81 57 46 11 327 302 302 306 307 309 322 327 324 323 329 338 337 334 331 327 324 321 317 314 318 319 319 322 325 323 321 319 317 317 314 311 304 297 297 295 298 293 291 289 292 292 285 264 244 240 242 243 245 242 240 237 234
259 217 186 203 296 318 325 269 227 206 193 168 134 309 335 218 145 111 141 229 216 212 168 121 278 335 285 52 127 114 115 248 207 225 262 267 275 287 290 303 319 325 323 324 328 335 337 333 330 325 324 325 331 329 319 312 315 318 319 320 320 319 318 318 316 314 313 314 315 319 318 318 315 316 310 305 300 291 271 252 244 240 243 244 244 240 234
262 175 153 140 67 0 246 227 176 160 169 176 148 208 214 214 133 180 188 216 171 107 117 133 197 251 245 145 161 162 171 200 227 247 241 250 259 273 279 284 300 306 308 314 322 331 335 329 323 319 320 327 325 317 308 305 309 314 319 323 323 319 319 320 320 321 328 339 339 334 332 330 328 324 321 312 307 303 295 279 259 250 244 244 244 243 240
83 83 72 59 261 237 243 277 163 175 162 165 169 188 199 220 213 339 82 95 112 157 170 179 214 221 245 144 163 200 214 195 209 233 252 274 276 282 282 295 304 302 306 296 306 327 336 333 322 320 319 321 320 316 319 314 311 318 320 320 322 322 321 321 323 327 330 328 323 320 317 316 314 311 307 305 303 301 300 295 287 270 254 247 243 242 242
65 61 125 241 256 251 319 331 177 175 115 94 67 27 354 251 214 176 134 151 157 168 190 226 236 242 153 148 181 195 214 216 208 213 275 270 270 284 291 290 294 306 314 304 307 309 318 321 321 321 319 319 322 322 318 322 322 314 312 316 317 319 318 319 319 320 319 317 312 311 309 308 303 300 300 296 297 298 293 288 282 280 272 258 247 242 240
169 186 152 209 309 359 327 2 175 149 168 182 161 172 250 224 207 169 152 170 172 173 213 283 330 38 73 94 261 246 233 243 224 220 261 242 259 267 283 288 288 288 300 308 298 293 315 320 318 320 315 318 320 318 321 326 323 318 320 319 318 316 314 313 313 312 312 308 306 302 302 298 293 289 288 288 285 287 288 288 283 274 271 263 256 247 243
119 126 67 12 3 284 267 236 271 259 177 160 173 109 251 295 264 182 136 152 174 144 171 42 29 58 63 19 314 289 276 266 284 283 260 267 263 269 276 311 290 299 308 307 304 305 318 317 315 313 314 321 325 321 325 324 324 321 320 319 315 313 309 309 305 304 301 300 297 299 296 295 293 289 282 274 275 274 274 280 281 279 274 270 262 253 246
97 108 137 196 176 243 210 223 232 246 162 122 108 73 255 263 207 188 137 155 180 170 147 172 73 61 56 307 261 280 283 292 276 269 285 266 256 267 280 269 293 327 326 323 315 326 331 329 324 321 317 326 326 328 328 326 324 322 320 316 316 313 310 305 302 298 296 292 290 291 292 289 290 289 285 281 275 271 266 268 270 274 271 268 265 258 252
207 164 138 220 195 216 260 229 258 224 130 85 64 341 274 255 223 177 137 147 172 197 186 137 89 115 47 249 265 250 263 261 278 264 295 318 299 300 322 289 284 309 322 338 332 339 334 319 316 315 323 330 326 324 323 324 328 330 325 318 311 310 307 305 301 299 297 297 292 289 287 287 285 282 281 281 274 272 270 265 266 265 266 264 263 260 255
229 122 224 340 316 273 242 219 238 156 117 78 99 206 235 243 218 181 145 153 181 160 159 144 65 229 196 219 246 295 305 317 322 310 290 257 252 285 290 254 291 328 327 323 314 315 306 306 310 311 323 325 320 317 323 328 332 330 323 315 313 313 311 307 305 302 301 298 296 293 287 285 285 281 278 276 276 272 271 268 263 262 259 259 259 260 258
321 200 117 210 229 236 193 317 143 163 89 253 214 235 199 145 202 196 162 160 200 165 161 173 178 229 250 257 272 294 292 272 270 270 300 323 337 337 286 250 313 323 317 316 315 322 316 313 313 316 327 325 314 321 326 326 323 323 324 319 313 313 312 310 308 304 301 298 292 292 293 289 287 284 281 278 274 273 268 266 264 260 256 255 255 257 258
53 43 85 41 73 262 153 137 71 45 131 231 207 168 215 170 174 144 177 154 193 153 161 206 198 249 287 292 305 288 280 315 327 339 11 331 324 320 298 319 323 299 313 317 318 317 314 316 313 315 332 326 322 328 329 323 323 326 324 321 317 314 310 307 304 302 301 300 300 300 296 296 294 290 286 281 277 272 267 263 261 258 254 253 254 257 258
151 104 147 193 211 203 187 140 176 216 196 184 174 136 144 196 151 138 156 197 188 177 143 177 288 240 246 310 295 311 336 336 327 17 14 354 338 335 293 259 279 278 293 297 305 312 316 318 310 319 332 325 321 327 322 320 325 324 323 322 319 317 313 310 310 310 312 311 307 301 296 292 287 281 280 276 271 267 263 260 258 255 250 247 248 251 252
131 201 215 243 218 183 193 175 200 190 194 159 174 147 172 142 182 169 141 187 213 185 153 187 163 287 236 233 220 153 321 315 359 7 333 338 327 307 303 311 304 303 292 296 305 318 326 320 316 322 321 323 319 321 316 320 326 328 324 322 319 317 316 315 317 321 319 314 308 302 300 299 296 292 286 284 281 274 261 252 248 250 251 245 246 248 250
306 261 203 191 116 202 216 234 180 168 191 198 148 148 167 219 184 163 158 196 203 218 131 141 305 214 250 352 341 359 346 6 335 359 356 346 334 322 333 339 339 312 310 317 318 324 325 319 321 324 316 326 327 315 311 314 324 326 322 322 322 320 316 316 323 324 319 312 305 301 299 295 291 290 292 291 284 280 273 260 251 247 248 248 246 247 247
67 273 342 166 197 214 197 191 205 201 189 180 170 165 167 187 177 185 188 169 189 189 145 169 205 277 293 123 337 275 312 355 332 325 293 309 300 301 329 317 334 321 330 324 323 326 329 316 329 321 314 322 316 316 317 316 326 326 323 324 325 323 323 324 328 328 325 320 317 314 311 308 301 297 291 286 285 283 275 268 259 252 250 248 249 245 244
140 230 222 220 219 199 188 167 169 203 221 207 185 181 182 173 185 172 193 177 175 156 162 178 171 210 180 152 202 256 280 275 253 275 280 287 310 309 307 328 342 315 319 319 318 333 327 311 332 321 323 329 324 326 323 324 328 328 325 330 329 329 327 329 330 332 328 322 318 315 317 316 311 307 299 291 288 282 278 271 262 257 250 248 246 243 245
270 299 263 141 120 116 203 234 216 192 180 187 201 192 177 174 161 213 212 194 179 174 202 164 162 123 219 197 196 235 287 278 274 266 260 264 272 281 329 325 321 294 278 318 326 337 328 311 324 318 320 326 324 329 324 324 329 329 327 328 330 331 330 327 329 329 325 320 318 316 314 313 305 297 298 301 296 290 281 272 264 258 253 250 247 248 246
301 196 208 133 104 260 223 218 220 213 198 174 177 191 188 189 197 199 184 233 247 190 177 158 154 149 185 208 187 193 231 241 255 263 258 263 281 295 303 299 333 313 305 326 329 334 329 311 313 311 324 326 327 327 318 321 327 331 328 330 334 336 334 331 329 326 319 316 317 315 313 309 308 304 294 281 275 281 286 276 258 247 244 248 249 252 255
236 239 234 188 158 186 217 198 210 202 176 164 166 187 193 208 202 185 160 159 179 179 198 189 150 165 173 206 183 166 256 263 242 234 240 259 280 287 294 315 344 323 310 329 349 338 322 314 305 311 330 333 333 329 321 322 328 329 328 330 333 333 334 335 330 322 319 318 318 316 313 311 306 305 308 307 292 279 268 262 261 256 243 242 246 248 248
231 209 192 178 151 176 219 227 187 183 176 171 184 192 193 195 196 187 171 174 168 210 220 224 189 168 190 193 168 194 251 258 262 269 253 248 246 254 286 53 295 304 332 335 333 304 308 319 314 321 335 333 328 325 318 319 324 329 327 329 332 333 336 334 328 322 318 317 318 319 319 317 310 310 311 317 318 322 335 322 272 252 248 247 245 244 243
200 214 183 188 170 185 191 177 182 180 179 172 180 196 201 204 209 181 175 195 199 182 191 212 225 185 176 196 182 186 202 242 244 240 249 256 265 267 337 3 306 272 289 274 303 311 327 321 330 335 331 326 324 325 320 317 322 329 327 327 333 334 338 334 329 323 321 324 324 325 325 322 323 324 323 323 327 330 334 345 344 309 274 264 255 251 249
195 173 201 186 174 180 186 137 131 173 188 185 184 198 207 198 195 189 193 195 204 196 186 198 211 218 185 179 197 197 203 229 244 254 273 279 281 313 7 234 245 250 251 287 348 351 339 322 325 331 333 322 324 324 320 320 321 324 324 324 331 337 340 336 332 328 328 330 330 328 325 322 318 321 328 326 330 328 330 337 345 348 340 304 278 277 269
251 190 138 92 228 241 208 172 204 192 187 191 189 196 199 200 192 193 204 201 198 191 194 199 200 198 198 191 185 193 189 240 298 285 260 273 272 251 240 226 233 239 239 15 7 358 340 326 329 332 330 322 324 324 323 325 328 325 334 336 341 340 343 343 338 331 331 332 333 331 330 328 329 334 333 333 329 330 336 339 339 340 333 340 335 324 308
216 206 174 169 204 203 218 220 192 185 179 187 192 197 204 187 180 188 210 228 240 235 226 204 183 172 185 210 180 215 230 234 241 267 290 274 260 253 231 216 221 157 79 39 16 5 358 332 322 325 327 323 329 327 324 331 337 332 333 343 346 348 348 347 341 336 336 338 336 337 334 329 326 324 330 334 339 334 328 330 344 339 338 340 333 326 323
218 214 220 202 196 202 189 176 152 154 188 199 197 187 144 161 197 200 213 214 217 211 224 229 203 185 180 199 181 195 225 237 252 264 261 264 252 235 218 194 159 103 77 43 20 13 351 333 321 329 324 322 329 328 325 336 343 336 333 344 346 349 353 351 342 338 339 337 342 337 331 329 328 337 341 342 338 335 339 347 346 343 340 346 353 350 351
243 214 212 221 127 140 130 158 188 198 197 188 171 181 180 174 188 216 218 227 218 216 224 205 179 200 192 183 200 200 209 225 231 246 253 240 230 219 195 173 106 47 35 25 352 336 345 312 318 323 317 318 325 324 329 342 341 334 329 339 341 345 349 349 345 338 339 342 338 333 341 339 343 345 346 345 345 344 349 350 351 351 354 358 0 4 358
281 208 198 182 167 171 165 186 188 192 182 176 176 182 195 176 186 206 232 240 235 234 219 183 188 190 198 197 209 214 216 224 231 232 226 229 222 208 188 157 114 143 114 325 275 291 294 288 304 313 306 313 323 326 336 346 340 333 328 337 344 332 338 342 344 345 339 339 339 344 345 347 351 353 353 350 351 355 357 353 357 357 1 5 9 7 355
329 22 47 177 175 180 188 180 177 186 194 185 152 157 164 157 175 213 223 215 214 203 191 183 178 189 201 209 208 214 216 224 201 183 193 217 232 208 184 152 151 163 166 183 200 229 264 262 312 304 301 312 327 328 343 341 340 337 324 326 334 336 331 340 348 346 348 342 342 344 348 351 354 356 355 358 357 357 355 357 359 358 3 5 8 6 359
95 102 107 135 74 284 243 223 178 199 185 158 183 180 180 175 171 186 199 196 171 179 174 186 195 195 199 199 203 214 226 210 169 171 191 216 243 247 187 169 163 158 155 164 194 207 229 257 268 288 301 312 329 328 344 338 335 329 316 318 322 327 326 335 337 346 348 350 351 350 351 354 352 356 358 355 355 354 357 359 1 3 7 4 2 3 5
158 172 191 190 176 194 203 213 207 183 195 178 176 177 189 195 186 192 191 169 163 171 187 199 202 197 189 191 200 213 204 175 154 195 210 213 226 235 180 176 175 175 179 192 191 229 253 256 257 282 294 306 319 335 339 347 328 328 316 312 317 331 334 335 339 346 349 352 350 349 352 353 359 358 354 355 356 360 1 0 4 5 9 2 3 2 2
150 182 196 199 194 190 179 168 174 170 160 171 206 213 202 185 171 175 170 150 170 198 205 196 192 190 189 193 194 214 208 220 218 198 206 214 225 219 165 168 175 162 52 297 267 256 237 245 250 270 288 297 309 328 328 329 323 322 315 307 309 315 318 336 344 346 344 338 343 354 356 359 357 356 354 357 359 357 1 6 6 4 3 4 6 3 6
124 114 123 127 158 155 154 156 163 167 170 176 185 187 188 185 170 156 160 192 205 195 188 193 189 180 184 190 207 221 232 223 201 192 202 211 222 184 159 174 172 166 205 303 268 232 243 252 260 271 277 288 311 324 321 328 320 323 304 296 294 307 317 334 333 338 341 347 349 347 355 352 353 357 357 359 1 1 2 4 3 6 7 7 7 7 6
116 142 164 166 168 158 159 165 165 155 162 175 189 196 197 188 180 198 194 197 194 196 194 179 165 178 198 208 211 220 212 189 189 190 201 211 203 158 172 180 185 182 192 231 260 225 226 244 256 275 275 293 305 312 308 336 346 323 303 292 285 302 310 332 331 340 339 345 352 349 347 348 356 357 2 3 3 3 2 2 1 5 8 7 7 9 10
140 140 152 159 164 162 171 181 173 166 168 189 204 182 180 196 208 189 193 202 201 209 194 180 188 194 201 216 224 233 231 209 198 199 206 209 199 183 186 175 205 194 202 225 233 203 216 235 251 265 264 288 293 298 307 326 341 324 298 292 284 287 292 316 313 330 333 345 344 355 360 1 354 357 358 1 6 4 2 2 2 3 6 7 9 12 12
104 120 147 159 156 160 171 184 183 173 172 180 212 221 215 195 200 186 197 209 216 186 174 192 184 177 198 208 233 258 250 214 203 199 203 218 210 196 208 206 205 200 209 213 192 209 225 225 237 242 246 268 288 291 304 319 342 332 307 290 287 271 280 295 300 299 311 330 353 359 0 7 1 357 356 0 0 3 5 5 4 5 7 6 8 8 8
168 161 169 169 169 178 169 184 194 196 208 187 164 190 208 186 198 189 206 221 228 180 175 169 165 183 206 213 225 240 244 214 201 199 208 215 208 222 278 285 253 243 236 222 206 213 218 222 228 235 236 242 255 286 296 316 329 313 312 308 296 261 287 297 296 302 309 330 351 351 0 8 9 356 359 357 3 5 7 6 9 8 7 9 12 10 10
177 172 179 169 186 188 192 200 220 229 224 204 188 196 185 183 186 184 201 206 205 187 175 171 179 195 204 213 216 224 221 204 196 205 207 189 217 227 222 251 245 228 224 219 216 210 208 212 215 226 235 228 227 253 268 315 322 314 308 309 295 270 266 303 297 301 277 310 22 14 352 347 9 6 358 359 3 6 8 8 5 5 8 12 9 8 12
194 179 180 194 189 192 205 209 209 227 245 220 210 199 199 191 175 194 203 194 184 191 190 195 190 194 207 211 216 216 216 212 203 209 193 196 215 223 225 252 235 219 215 213 218 209 209 211 224 225 215 223 229 234 240 257 287 297 296 296 291 312 263 271 273 277 298 322 164 140 68 16 17 12 352 348 356 5 3 6 6 5 6 5 7 6 7
193 189 198 201 215 221 220 209 202 213 223 235 226 219 210 198 201 208 197 190 191 197 202 205 208 212 211 209 204 210 224 225 220 226 229 235 224 212 211 239 231 219 207 203 207 205 208 212 215 222 207 196 219 237 235 207 235 288 305 291 289 345 329 295 281 285 307 320 317 178 169 166 99 30 7 356 350 346 355 10 17 10 4 1 4 6 11
199 196 193 201 225 234 234 244 265 301 289 271 252 235 223 211 201 200 206 205 206 202 200 209 210 214 218 213 200 213 229 225 227 229 224 256 279 260 227 236 246 220 195 197 202 209 213 213 215 210 202 208 216 225 228 205 189 229 268 261 308 314 325 319 327 336 352 320 289 215 186 189 196 190 138 28 346 347 349 354 11 20 16 9 6 11 13
183 177 175 184 197 182 202 211 214 239 235 245 274 269 247 228 222 216 209 206 209 213 211 212 210 212 215 208 206 212 215 211 210 202 208 241 251 264 249 222 223 204 201 199 202 209 215 215 213 205 199 207 211 210 216 211 191 200 215 222 194 204 224 238 241 254 283 282 309 233 198 195 193 192 187 211 179 339 320 6 7 14 29 18 11 16 13
156 165 163 145 152 172 187 187 211 199 220 262 287 289 265 251 252 243 223 217 221 220 214 210 208 212 211 212 219 222 228 228 225 208 209 209 216 235 217 201 206 202 199 197 208 212 220 216 209 202 204 208 210 210 221 218 203 193 195 203 188 190 205 224 225 245 268 285 305 266 214 206 190 200 190 184 184 177 318 82 93 59 58 45 26 20 18
174 175 176 171 182 187 191 190 163 119 90 80 357 280 281 266 250 257 256 247 238 240 230 219 218 220 215 210 207 211 229 241 254 240 230 237 239 245 230 207 205 204 198 199 209 215 220 217 211 206 203 206 204 211 218 215 209 196 196 197 194 189 197 206 210 222 249 280 283 276 238 208 187 189 192 193 181 154 153 129 127 105 102 75 42 34 33
176 192 203 178 185 205 161 92 79 81 147 244 232 240 253 253 246 246 247 248 247 246 242 241 236 234 228 225 222 219 215 207 233 253 228 225 234 235 231 211 215 208 205 210 214 222 220 213 208 205 205 203 202 210 215 218 214 203 197 199 197 195 195 201 209 211 226 242 266 296 258 223 211 193 194 187 192 186 178 167 163 160 147 116 94 65 67
189 191 206 175 101 92 97 100 97 313 280 260 248 250 253 251 265 274 272 269 263 259 254 248 242 243 244 240 240 239 236 219 212 236 242 227 227 228 231 227 224 213 205 209 218 227 226 222 215 208 204 200 203 207 212 214 214 207 203 201 202 198 195 199 205 203 199 215 225 230 244 219 208 199 201 202 195 192 176 169 173 166 159 152 125 93 87
167 125 111 120 122 124 130 128 223 236 239 240 246 253 262 295 317 290 276 272 269 274 276 271 265 261 256 257 253 253 255 251 245 252 264 266 262 260 255 242 229 210 206 211 220 227 231 226 221 214 205 204 207 208 210 213 215 209 207 206 203 201 199 198 203 197 192 194 204 213 227 232 217 214 207 190 193 193 185 175 169 163 155 147 139 126 109
113 119 159 183 185 193 193 182 207 216 229 239 244 253 256 264 258 265 276 288 306 311 294 289 284 274 276 275 277 275 273 271 264 260 260 266 278 290 289 280 284 294 285 262 250 242 238 224 216 213 210 210 208 207 209 213 216 215 209 207 205 198 199 201 197 200 200 193 193 199 210 227 218 207 205 200 194 191 185 175 168 161 158 154 148 136 126
187 192 199 194 194 205 210 230 232 225 226 227 233 251 280 280 264 295 311 308 304 278 277 301 310 301 283 275 277 278 275 269 260 243 186 179 202 231 227 217 224 228 228 230 243 260 271 278 267 242 230 218 215 216 218 218 220 220 216 213 207 204 200 197 195 198 200 197 192 197 201 207 201 200 207 201 191 186 185 182 174 164 155 152 148 139 128